OBJECT E, 68420

Orbit data source: Space-Track

You're viewing an Uncataloged Satellite

Recently launched and/or uncataloged satellites may have evolving metadata. Metadata may include but not limited to: Owner, Maufacturer, Bus, Motor, and Mission.

OBJECT E, 68420 is a satellite in SSO that was launched on Mon, 30 Mar 2026 UTC via an FALCON 9 launch vehicle from the Air Force Western Test Range (AFWTR). Unknown objects in Earth's orbit typically refer to objects detected orbiting the Earth but have not yet been identified or cataloged. These objects could be anything from previously untracked satellites, spent rocket stages, debris from satellite collisions, or even natural meteoroids temporarily captured by Earth's gravity.

Loading next visibility...
Identifier
68420, 2026-067E
Orbit
SSO
Country
Flag of TBDTBD
Related business
Manufacturer
NKUA
Mission
Operational spacecraft
Bus & Motor
CUBESAT 6U, Unknown motor
Mass
~10 kg wet, ~10 kg dry
Launch date (UTC)
2026-03-30 (1 month ago)
Launch vehicle
FALCON 9
Launch site
Air Force Western Test Range (AFWTR)
Object type
Unknown
Shape & HBR
Unknown shape, 1.1 m
Radar Cross Section
RCS unknown

Expand to show TLE details & history
Last TLE update: 10 hours ago

TLE from 10 hours ago
0 OBJECT E
1 68420U 26067E   26127.45352933  .00006883  00000-0  33177-3 0  9992
2 68420  97.4462  86.5364 0003231  69.8586 290.2996 15.19028659  5768
Epoch: 2026-05-07T10:53Z
TLE epoch observation values (Epoch: 2026-05-07T10:53:04.934Z)
Latitude
0.00001°
Longitude
57.96639°
Altitude
511.091 km
Speed
7.609 km/s
True Right ascension
05h 46m 08s
True Declination
0° 00' 00"
Sunlit
Object was in daylight at epoch
Visualization orbit readout
Latitude
Unknown
Longitude
Unknown
Altitude
Unknown
Speed
Unknown
Apparent Right ascension
Unknown
Apparent Declination
Unknown
Sunlit
N/A
Visualization observer readout
Local Sidereal Time
05:09:05
Azimuth
Unknown
Elevation
Unknown
Doppler factor
Unknown
Orbital elements
Apogee altitude
507.968 km
Perigee altitude
503.52 km
Semi-major axis
6,883.881 km
Eccentricity
0.00032
Inclination
97.4462°
RAAN
86.5364°
Arg. of periapsis
69.8586°
True anomaly
290.26487°
Mean anomaly
290.2996°
Eccentric anomaly
290.28224°
Mean motion
3.80008 °/min
Orbital period
94.73 mins
BSTAR
0.00033177
Loading maneuver chart data...
Computing Atmospheric mass density...
Loading historical data...
Loading historical data...
Loading historical data...
Loading historical data...
Loading historical data...
Loading historical data...
Loading historical data...

Documentation

Showing up to 5 results
|